User: anonymous   Login
Location: Unspecified
(0.0000°N, 0.0000°E)
Time: 05:58:54
(UTC+00:00)
Language:

XW-2C - Orbit

View from above orbital plane
View from above orbital plane
View from above satellite
View from above satellite

Ground track
Ground track

The orbit data is extracted from the following two-line orbital elements,

1 40906U 15049H   18342.87091501 +.00000775 +00000-0 +44418-4 0  9991
2 40906 097.4632 343.2278 0016103 138.8034 340.1632 15.15424383177942
Epoch (UTC): 08 December 2018 20:54:07
Eccentricity: 0.0016103
inclination: 97.4632°
perigee height: 508 km
apogee height: 531 km
right ascension of ascending node: 343.2278°
argument of perigee: 138.8034°
revolutions per day: 15.15424383
mean anomaly at epoch: 340.1632°
orbit number at epoch: 17794

The dashed part of the orbit path shows where the satellite is in the earth's shadow,  

DLR